Showing default

OPS 9327 (IDSCS 14), 2654

Orbit data source: Space-Track

OPS 9327 (IDSCS 14), 2654 is a payload satellite owned by USAF SSD (US) in GEO that was launched on Wed, 18 Jan 1967 UTC via a TITAN IIIC launch vehicle from the Air Force Eastern Test Range (AFETR). Payload-class satellites include a variety of spacecraft equipped with specific instruments for various scientific and technological missions. These include communications satellites like Starlink; space stations such as the ISS; scientific satellites like the Hubble; Earth observation satellites from companies like Planet Labs, Umbra, and HawkEye 360; GPS; miniature CubeSats for education and research; and military/defense satellites.

Not visible in the next 10 days
Identifier
2654, 1967-003G
Orbit
GEO
Country
Flag of USUS
Related business
Manufacturer
Philco-Ford WDL
Mission
Non-operational spacecraft
Bus & Motor
IDCSP, Unknown motor
Mass
45 kg wet, 45 kg dry
Launch date (UTC)
1967-01-18 (59 years ago)
Launch vehicle
TITAN IIIC
Launch site
Air Force Eastern Test Range (AFETR)
Object type
Payload
Rocket body
Debris
Shape & HBR
Unknown
Radar Cross Section
Medium (>0.1 m² and <1 m²)

Expand to show TLE details & history
Last TLE update: 2 days ago

TLE from 2 days ago
0 OPS 9327 (IDSCS 14)
1 02654U 67003G   26033.84195101 -.00000072  00000-0  00000-0 0  9996
2 02654   7.8987  48.3549 0055448  45.5689 323.0212  1.07510581138030
Epoch: 2026-02-02T20:12Z
TLE epoch observation values (Epoch: 2026-02-02T20:12:24.567Z)
Latitude
1.11172°
Longitude
-19.62774°
Altitude
33,694 km
Speed
3.161 km/s
True Right ascension
03h 46m 01s
True Declination
1° 06' 38"
Sunlit
Object was in daylight at epoch
Visualization orbit readout
Latitude
Unknown
Longitude
Unknown
Altitude
Unknown
Speed
Unknown
Apparent Right ascension
Unknown
Apparent Declination
Unknown
Sunlit
N/A
Visualization observer readout
Local Sidereal Time
10:43:49
Azimuth
Unknown
Elevation
Unknown
Doppler factor
Unknown
Orbital elements
Apogee altitude
34,096.305 km
Perigee altitude
33,649.934 km
Semi-major axis
40,251.256 km
Eccentricity
0.00554
Inclination
7.8987°
RAAN
48.3549°
Arg. of periapsis
45.5689°
True anomaly
322.63688°
Mean anomaly
323.0212°
Eccentric anomaly
322.82925°
Mean motion
0.26877 °/min
Orbital period
1,339.46 mins
BSTAR
0
Loading maneuver chart data...
Computing Atmospheric mass density...
Loading historical data...
Loading historical data...
Loading historical data...
Loading historical data...
Loading historical data...
Loading historical data...
Loading historical data...

Documentation

Showing up to 5 results
|